TimeEDT,TemperatureF,Dew PointF,Humidity,Sea Level PressureIn,VisibilityMPH,Wind Direction,Wind SpeedMPH,Gust SpeedMPH,PrecipitationIn,Events,Conditions,WindDirDegrees,DateUTC
12:03 AM,64.4,64.4,100,30.13,0.8,ENE,4.6,-,0.00,Rain,Light Rain,60,2012-10-04 04:03:00
12:17 AM,64.4,64.4,100,30.13,1.0,NE,4.6,-,0.00,Rain,Light Rain,50,2012-10-04 04:17:00
12:53 AM,64.0,64.0,100,30.13,1.0,North,4.6,-,0.00,,Overcast,10,2012-10-04 04:53:00
1:15 AM,64.4,64.4,100,30.13,2.5,ENE,6.9,-,N/A,,Overcast,60,2012-10-04 05:15:00
1:29 AM,62.6,62.6,100,30.13,3.0,NNE,5.8,-,N/A,,Overcast,20,2012-10-04 05:29:00
1:50 AM,62.6,62.6,100,30.13,2.0,NNE,5.8,-,N/A,,Overcast,20,2012-10-04 05:50:00
1:53 AM,63.0,63.0,100,30.13,2.5,NNE,5.8,-,N/A,,Overcast,20,2012-10-04 05:53:00
2:13 AM,62.6,62.6,100,30.13,5.0,North,4.6,-,N/A,,Overcast,10,2012-10-04 06:13:00
2:53 AM,63.0,63.0,100,30.12,5.0,NNE,4.6,-,N/A,,Overcast,20,2012-10-04 06:53:00
3:12 AM,62.6,62.6,100,30.13,6.0,NNE,4.6,-,N/A,,Overcast,20,2012-10-04 07:12:00
3:43 AM,62.6,62.6,100,30.13,2.0,NNW,3.5,-,N/A,,Overcast,340,2012-10-04 07:43:00
3:53 AM,63.0,62.1,97,30.13,1.8,North,4.6,-,N/A,,Overcast,360,2012-10-04 07:53:00
4:49 AM,62.6,62.6,100,30.14,2.0,NNE,3.5,-,N/A,,Overcast,20,2012-10-04 08:49:00
4:53 AM,62.1,62.1,100,30.14,2.0,North,4.6,-,N/A,,Overcast,10,2012-10-04 08:53:00
5:34 AM,62.6,62.6,100,30.12,3.0,NE,4.6,-,N/A,,Overcast,40,2012-10-04 09:34:00
5:53 AM,62.1,62.1,100,30.13,4.0,NNE,4.6,-,N/A,,Overcast,20,2012-10-04 09:53:00
6:36 AM,62.6,62.6,100,30.13,5.0,NNE,3.5,-,N/A,,Overcast,20,2012-10-04 10:36:00
6:44 AM,62.6,62.6,100,30.13,6.0,North,4.6,-,N/A,,Overcast,10,2012-10-04 10:44:00
6:53 AM,62.1,62.1,100,30.14,5.0,North,3.5,-,N/A,,Overcast,10,2012-10-04 10:53:00
7:43 AM,62.6,62.6,100,30.15,3.0,Calm,Calm,-,N/A,,Overcast,0,2012-10-04 11:43:00
7:53 AM,63.0,62.1,97,30.15,3.0,North,3.5,-,N/A,,Overcast,350,2012-10-04 11:53:00
8:23 AM,62.6,62.6,100,30.14,3.0,Calm,Calm,-,N/A,,Overcast,0,2012-10-04 12:23:00
8:51 AM,62.6,62.6,100,30.15,5.0,North,4.6,-,N/A,,Overcast,10,2012-10-04 12:51:00
8:53 AM,63.0,62.1,97,30.15,5.0,North,4.6,-,N/A,,Overcast,10,2012-10-04 12:53:00
9:05 AM,64.4,62.6,94,30.14,6.0,NNE,4.6,-,N/A,,Overcast,20,2012-10-04 13:05:00
9:31 AM,64.4,62.6,94,30.15,9.0,North,4.6,-,N/A,,Overcast,10,2012-10-04 13:31:00
9:53 AM,64.9,62.1,90,30.14,9.0,North,6.9,-,N/A,,Overcast,360,2012-10-04 13:53:00
10:53 AM,66.0,63.0,90,30.14,10.0,North,4.6,-,N/A,,Overcast,350,2012-10-04 14:53:00
11:53 AM,68.0,63.0,84,30.14,10.0,Calm,Calm,-,N/A,,Overcast,0,2012-10-04 15:53:00
12:13 PM,69.8,62.6,78,30.13,10.0,NNW,4.6,-,N/A,,Overcast,340,2012-10-04 16:13:00
12:53 PM,69.1,64.0,84,30.11,10.0,North,5.8,-,N/A,,Overcast,350,2012-10-04 16:53:00
1:46 PM,69.8,64.4,83,30.08,10.0,ENE,4.6,-,N/A,,Overcast,60,2012-10-04 17:46:00
1:53 PM,70.0,64.0,81,30.09,10.0,Calm,Calm,-,N/A,,Overcast,0,2012-10-04 17:53:00
2:13 PM,69.8,64.4,83,30.07,10.0,East,6.9,-,N/A,,Overcast,80,2012-10-04 18:13:00
2:20 PM,69.8,64.4,83,30.07,10.0,East,4.6,-,N/A,,Overcast,80,2012-10-04 18:20:00
2:40 PM,68.0,64.4,88,30.08,10.0,South,3.5,-,N/A,,Overcast,180,2012-10-04 18:40:00
2:53 PM,68.0,64.0,87,30.07,10.0,Calm,Calm,-,N/A,,Overcast,0,2012-10-04 18:53:00
3:53 PM,66.9,63.0,87,30.06,10.0,SSW,5.8,-,N/A,,Overcast,200,2012-10-04 19:53:00
4:46 PM,66.2,62.6,88,30.07,10.0,SSW,4.6,-,N/A,,Overcast,200,2012-10-04 20:46:00
4:53 PM,66.9,63.0,87,30.07,10.0,SSW,4.6,-,N/A,,Overcast,210,2012-10-04 20:53:00
5:24 PM,66.2,62.6,88,30.08,10.0,SSW,3.5,-,N/A,,Overcast,200,2012-10-04 21:24:00
5:53 PM,66.0,63.0,90,30.07,8.0,SW,4.6,-,N/A,,Overcast,220,2012-10-04 21:53:00
6:53 PM,66.0,64.0,93,30.05,8.0,Calm,Calm,-,N/A,,Overcast,0,2012-10-04 22:53:00
7:32 PM,64.4,64.4,100,30.06,7.0,Calm,Calm,-,N/A,,Overcast,0,2012-10-04 23:32:00
7:53 PM,64.9,64.0,97,30.06,8.0,Calm,Calm,-,N/A,,Overcast,0,2012-10-04 23:53:00
8:07 PM,64.4,64.4,100,30.06,8.0,Calm,Calm,-,N/A,,Overcast,0,2012-10-05 00:07:00
9:01 PM,64.4,64.4,100,30.05,7.0,Calm,Calm,-,N/A,,Overcast,0,2012-10-05 01:01:00
9:53 PM,64.9,63.0,93,30.07,7.0,Calm,Calm,-,0.01,Rain,Light Rain,0,2012-10-05 01:53:00
10:38 PM,64.4,64.4,100,30.05,6.0,Calm,Calm,-,0.00,,Overcast,0,2012-10-05 02:38:00
10:53 PM,64.0,63.0,96,30.04,4.0,Calm,Calm,-,0.00,,Overcast,0,2012-10-05 02:53:00
11:01 PM,64.4,64.4,100,30.04,4.0,South,3.5,-,N/A,,Overcast,190,2012-10-05 03:01:00
11:09 PM,64.4,64.4,100,30.05,4.0,Calm,Calm,-,N/A,,Overcast,0,2012-10-05 03:09:00
11:53 PM,64.0,64.0,100,30.04,5.0,Calm,Calm,-,N/A,,Overcast,0,2012-10-05 03:53:00